Regional Weather Roundup
Issued by NWS

Home | Current Version | Previous Version | Graphics & Text | Print | Product List | Glossary Off
Versions: 1 2 3 4 5 6 7 8 9 10 11 12 13 14 15 16 17 18 19 20 21 22 23 24 25 26 27 28 29 30 31 32 33 34 35 36 37 38 39 40 41 42 43 44 45 46 47 48 49 50

000
ASUS43 KMKX 020100
RWRWI

WISCONSIN REGIONAL WEATHER ROUNDUP
NATIONAL WEATHER SERVICE MILWAUKEE/SULLIVAN WI
800 PM CDT SAT AUG 01 2015

NOTE: "FAIR" INDICATES FEW OR NO CLOUDS BELOW 12,000 FEET WITH NO
SIGNIFICANT WEATHER AND/OR OBSTRUCTIONS TO VISIBILITY.

WIZ001-002-006>008-014>016-023>028-020200-
NORTHWEST WISCONSIN

CITY           SKY/WX    TMP DP  RH WIND       PRES   REMARKS
SUPERIOR ARPT  PTCLDY    75  59  56 SW6       29.76S
ASHLAND        CLEAR     73  56  54 SW7       29.77F
HAYWARD        PTCLDY    74  60  61 S7        29.81F
SIREN          CLEAR     78  58  50 CALM      29.80F
CUMBERLAND     CLEAR     73  63  68 S3        29.82F
RICE LAKE      CLEAR     76  60  58 S3        29.83F
CHETEK         CLEAR     77  61  57 CALM      29.82F
LADYSMITH      CLEAR     76  56  51 SW5       29.85F
EAU CLAIRE     CLEAR     77  61  57 SW5       29.81F
MENOMONIE      CLEAR     79  62  56 S3        29.82F HX  80
NEW RICHMOND   CLEAR     79  62  55 S8        29.81F HX  80
OSCEOLA        CLEAR     78  63  59 SE3       29.82F HX  80
$$

WIZ003>005-009-010-017-018-020200-
NORTH CENTRAL WISCONSIN

CITY           SKY/WX    TMP DP  RH WIND       PRES   REMARKS
MANITOWISH WTR CLEAR     72  55  54 SW6       29.82F
ARBOR VITAE    CLEAR     73  55  52 W5        29.83F
WOODRUFF       CLEAR     73  55  52 W5        29.83F
RHINELANDER    CLEAR     70  54  56 W5        29.85F
EAGLE RIVER    CLEAR     72  49  44 W7        29.83F
LAND O LAKES   CLEAR     73  51  45 SW6       29.83F
PHILLIPS       PTCLDY    73  56  56 SW6       29.83F
TOMAHAWK       MOCLDY    72  54  52 CALM      29.85F
MEDFORD        CLEAR     73  58  58 SW3       29.86F
MERRILL        NOT AVBL
$$

WIZ029-030-035-036-043>047-020200-
CENTRAL WISCONSIN

CITY           SKY/WX    TMP DP  RH WIND       PRES   REMARKS
WAUSAU         CLEAR     75  54  47 W6        29.83F
MOSINEE        NOT AVBL
MARSHFIELD     CLEAR     74  58  57 SW5       29.85F
STEVENS POINT  CLEAR     77  54  44 W5        29.86F
WAUPACA        CLEAR     80  51  35 CALM      29.85S
WAUTOMA        NOT AVBL
WISC RAPIDS    CLEAR     78  54  43 CALM      29.86F
CAMP DOUGLAS   NOT AVBL
$$

WIZ011>013-019>022-031-037>040-048>050-020200-
NORTHEAST WISCONSIN

CITY           SKY/WX    TMP DP  RH WIND       PRES   REMARKS
ANTIGO         CLEAR     71  55  56 W5        29.86F
SHAWANO        CLEAR     78  52  40 W3        29.84S
OCONTO         CLEAR     77  54  45 SW3       29.81F
STURGEON BAY   CLEAR     75  52  43 SW5       29.85S
GREEN BAY      CLEAR     74  57  55 CALM      29.83F
MANITOWOC      NOT AVBL
APPLETON       PTCLDY    75  54  46 W6        29.85F
CLINTONVILLE   CLEAR     79  50  36 W6        29.84S
OSHKOSH        CLEAR     77  54  44 CALM      29.84F
$$

WIZ032>034-041-042-053>061-020200-
SOUTHWEST WISCONSIN

CITY           SKY/WX    TMP DP  RH WIND       PRES   REMARKS
LA CROSSE      CLEAR     82  65  56 S5        29.83F HX  84
SPARTA         CLEAR     80  59  48 SW3       29.86F HX  81
VIROQUA        CLEAR     78  67  67 CALM      29.89F HX  80
BOSCOBEL       CLEAR     82  66  58 W5        29.87S HX  84
PRAIRIE DU CHI CLEAR     83  63  51 CALM      29.86F HX  84
PLATTEVILLE    MOCLDY    80  69  67 SW5       29.90F HX  83
$$

WIZ056-057-062-063-064-067-068-020200-
SOUTH CENTRAL WISCONSIN

CITY           SKY/WX    TMP DP  RH WIND       PRES   REMARKS
REEDSBURG      CLEAR     80  63  54 SW6       29.87S HX  82
BARABOO/DELLS  CLEAR     80  58  47 SW5       29.87S HX  80
LONE ROCK      NOT AVBL
MINERAL POINT  CLEAR     81  61  50 W6        29.90F HX  81
MADISON        PTCLDY    79  62  56 CALM      29.87S HX  80
MIDDLETON      CLEAR     79  62  54 W3        29.88F HX  81
WATERTOWN      CLEAR     78  63  58 CALM      29.86S HX  80
MONROE         PTCLDY    79  63  57 W9        29.90S HX  80
JANESVILLE     CLEAR     81  63  54 W5        29.88S HX  82
$$

WIZ051-052-058>065-066-070>072-020200-
SOUTHEAST WISCONSIN

CITY           SKY/WX    TMP DP  RH WIND       PRES   REMARKS
MILWAUKEE      PTCLDY    75  59  57 SE10      29.87S
WAUKESHA       CLEAR     77  57  50 SW6       29.89S
MILWAUKEE/TIMM NOT AVBL
RACINE         CLEAR     75  60  59 S8        29.89S
BURLINGTON     CLEAR     78  61  56 CALM      29.88S
KENOSHA        CLEAR     73  62  68 E5        29.88S
FOND DU LAC    CLEAR     76  60  57 W3        29.85F
SHEBOYGAN      CLEAR     73  61  65 CALM      29.85S
WEST BEND      CLEAR     77  54  44 CALM      29.86F
JUNEAU         CLEAR     76  62  62 SW3       29.88R
$$

LSZ147-162-020200-
LAKE SUPERIOR

STATION/POSITION TIME  TEMP    WIND        PRES    WAVE
                       AIR SEA DIR/SP/G            HT/PER
                 (UTC) (F)     (DEG/KT/KT) (MB)    (FT/S)
W MID LAKE BUOY  2350   62 54  210/ 10/ 12 1006.7F   1/ 3
DEVILS ISLAND    0000   73     230/ 14/ 17 1006.7F
PORT WING        0000   80     220/  9/ 16 1007.8F
SAXON HARBOR     0000   79                 1007.8
$$

LMZ867-665-643>646-020200-
LAKE MICHIGAN

STATION/POSITION TIME  TEMP    WIND        PRES    WAVE
                       AIR SEA DIR/SP/G            HT/PER
                 (UTC) (F)     (DEG/KT/KT) (MB)    (FT/S)
CHAMBERS ISLAND  0000   78     220/  3/  6 1009.1F
S GREEN BAY BUOY 0030   72 71  240/  6/  8 1011.3F
N MID LAKE BUOY  2350   71 69  200/ 16/ 19 1008.7F   2/ 3
NORTHPORT PIER   0000   80     260/  4/  8 1009.1F
ALGOMA LAKESHORE 0012          290/  3/  5   N/A
KEWAUNEE LAKESHO 0000   80     270/  5/  7 1010.0F
SHEBOYGAN LAKESH 0000   81     290/  6/  7 1010.8F
PORT WASHINGTON  0040   84     240/  4/  5 1011.5F
ATWATER BUOY     0000   79 66  280/  8/  8 1012.8F
MILWAUKEE LAKESH 0000   72     140/ 12/ 13   N/A
KENOSHA   LAKESH 0000   76     110/  4/  7 1011.2F
$$

TC  - TEMPERATURE IN CELSIUS
VSB - VISIBILITY IN STATUTE MILES
WCI - WIND CHILL INDEX
HX  - HEAT INDEX



USA.gov is the U.S. government's official web portal to all federal, state and local government web resources and services.